Flag for U.S.A. Weather past 2 weeks in Amarillo, Texas, U.S.A.

Now
44 °F

Clear.


Feels Like: 42 °F
Forecast: 39 / 69 °F
Wind: 5 mph from Northwest

Location: Amarillo International Airport

Current Time: Jan 27, 2015 at 6:37:24 AM

Latest Report: Jan 27, 2015 at 5:53 AM


Visibility: 10 mi

Pressure: 30.15 "Hg

Humidity: 65%

Dew point: 33 °F

Location of AmarilloLocation

Historic Weather in Amarillo — Graph

°F

Amarillo temperature yesterday

Maximum temperature yesterday: 70 °F (at 2:53 PM)
Minimum temperature yesterday: 37 °F (at 12:53 AM)
Average temperature yesterday: 50 °F

Past Weeks' High & Low Weather Summary

 TemperatureHumidityPressure
High70 °F (Jan 19, 2:53 PM)100% (Jan 21, 8:53 PM)30.56 "Hg (Jan 21, 8:53 PM)
Low13 °F (Jan 23, 4:53 AM)11% (Jan 19, 3:53 PM)29.80 "Hg (Jan 17, 1:53 AM)
Average37 °F62%30.21 "Hg
* Reported Jan 12 5:00 AM — Jan 27 4:53 AM, Amarillo, Weather by CustomWeather, © 2014

Note: Actual official high and low records may vary slightly from our data, if they occured in-between our weather recording intervals... More about our weather records

Advertising

Amarillo weather history for previous 24 hours

 ConditionsComfort  
Time TempWeatherWind HumidityBarometerVisibility
4:53 AM
Jan 27
41 °FClear.6 mph74%30.15 "Hg10 mi
3:53 AM44 °FClear.7 mph68%30.14 "Hg10 mi
2:53 AM45 °FClear.5 mph65%30.15 "Hg10 mi
1:53 AM44 °FClear.7 mph65%30.16 "Hg10 mi
12:53 AM46 °FClear.6 mph61%30.17 "Hg10 mi
11:53 PM
Jan 26
46 °FClear.5 mph61%30.19 "Hg10 mi
10:53 PM47 °FClear.6 mph61%30.19 "Hg10 mi
9:53 PM47 °FClear.8 mph61%30.21 "Hg10 mi
8:53 PM50 °FClear.7 mph57%30.20 "Hg10 mi
7:53 PM50 °FClear.7 mph54%30.20 "Hg10 mi
6:53 PM53 °FClear.6 mph47%30.18 "Hg10 mi
5:53 PM61 °FSunny.7 mph38%30.16 "Hg10 mi
4:53 PM68 °FSunny.14 mph23%30.14 "Hg10 mi
3:53 PM69 °FSunny.15 mph21%30.14 "Hg10 mi
2:53 PM70 °FSunny.12 mph25%30.15 "Hg10 mi
1:53 PM66 °FSunny.14 mph31%30.16 "Hg10 mi
12:53 PM63 °FSunny.16 mph34%30.19 "Hg10 mi
11:53 AM58 °FSunny.13 mph38%30.23 "Hg10 mi
10:53 AM53 °FSunny.14 mph45%30.25 "Hg10 mi
9:53 AM49 °FSunny.16 mph50%30.23 "Hg10 mi
8:53 AM44 °FSunny.13 mph58%30.24 "Hg10 mi
7:53 AM39 °FSunny.10 mph67%30.24 "Hg10 mi
6:53 AM39 °FClear.10 mph70%30.22 "Hg10 mi
Weather by CustomWeather, © 2014

See weather overviewHow to use our weather pages